TimeCDT,TemperatureF,Dew PointF,Humidity,Sea Level PressureIn,VisibilityMPH,Wind Direction,Wind SpeedMPH,Gust SpeedMPH,PrecipitationIn,Events,Conditions,WindDirDegrees,DateUTC
1:53 AM,46.0,37.0,71,29.96,10.0,Calm,Calm,-,N/A,,Clear,0,2013-04-01 06:53:00
2:53 AM,46.9,37.0,68,29.97,10.0,NNW,3.5,-,N/A,,Clear,340,2013-04-01 07:53:00
5:53 AM,43.0,33.1,68,30.05,10.0,NNE,9.2,-,N/A,,Clear,20,2013-04-01 10:53:00
6:53 AM,41.0,32.0,70,30.07,10.0,NNE,10.4,-,N/A,,Clear,30,2013-04-01 11:53:00
7:53 AM,43.0,30.9,62,30.12,10.0,NNE,13.8,-,N/A,,Clear,20,2013-04-01 12:53:00
8:53 AM,46.0,32.0,58,30.13,10.0,North,12.7,19.6,N/A,,Clear,10,2013-04-01 13:53:00
9:53 AM,48.9,34.0,56,30.14,10.0,NE,12.7,-,N/A,,Clear,40,2013-04-01 14:53:00
10:53 AM,51.1,34.0,52,30.15,10.0,NNE,11.5,-,N/A,,Clear,20,2013-04-01 15:53:00
11:53 AM,54.0,34.0,47,30.16,10.0,NNE,4.6,-,N/A,,Clear,20,2013-04-01 16:53:00
12:53 PM,55.9,36.0,47,30.14,10.0,NNE,10.4,-,N/A,,Clear,30,2013-04-01 17:53:00
1:53 PM,55.9,34.0,44,30.14,10.0,Variable,5.8,-,N/A,,Partly Cloudy,0,2013-04-01 18:53:00
2:53 PM,55.9,34.0,44,30.13,10.0,Variable,3.5,-,N/A,,Mostly Cloudy,0,2013-04-01 19:53:00
3:53 PM,57.0,34.0,42,30.13,10.0,North,9.2,-,N/A,,Mostly Cloudy,350,2013-04-01 20:53:00
4:53 PM,55.0,33.1,43,30.14,10.0,NNW,9.2,-,N/A,,Overcast,340,2013-04-01 21:53:00
5:53 PM,53.1,32.0,45,30.15,10.0,NNW,9.2,-,N/A,,Scattered Clouds,330,2013-04-01 22:53:00
6:53 PM,51.1,30.0,44,30.15,10.0,North,9.2,-,N/A,,Overcast,350,2013-04-01 23:53:00
7:53 PM,48.9,27.0,43,30.15,10.0,North,10.4,-,N/A,,Overcast,10,2013-04-02 00:53:00
8:53 PM,46.9,24.1,41,30.14,10.0,NE,8.1,-,N/A,,Overcast,40,2013-04-02 01:53:00
9:53 PM,46.0,24.1,42,30.17,10.0,North,8.1,-,N/A,,Mostly Cloudy,10,2013-04-02 02:53:00
10:53 PM,44.1,28.0,53,30.19,10.0,North,4.6,-,0.00,Rain,Light Rain,10,2013-04-02 03:53:00
11:53 PM,44.1,24.1,45,30.20,10.0,NNE,11.5,-,0.00,,Overcast,20,2013-04-02 04:53:00